TRANSIT 10 DEB, 24705

Orbit data source: Space-Track

TRANSIT 10 DEB, 24705 is space debris in LEO originally from a launch on Wed, 22 Dec 1965 UTC launched from the Air Force Western Test Range (AFWTR). Debris objects in space refer to the collection of defunct objects orbiting the Earth. Examples of debris include non-operational satellites, rocket bodies, and fragments generated from explosions, collisions, or faulty payload assembly.

Loading next visibility...
Identifier
24705, 1965-109E
Orbit
LEO
Last TLE update
15 hours ago
Origin
Manufacturer
Unknown
Mission
Spacecraft
Bus & Motor
Unknown
Mass
Unknown
Launch date (UTC)
1965-12-22 (59 years ago)
Launch vehicle
Unknown
Launch site
Air Force Western Test Range (AFWTR)
Object type
Payload
Rocket body
Debris
Shape & HBR
Unknown
Radar Cross Section
Medium (>0.1 m² and <1 m²)

Expand to show TLE details & history

TLE from 15 hours ago
0 TRANSIT 10 DEB
1 24705U 65109E   25128.71964014  .00003514  00000-0  19192-2 0  9996
2 24705  89.0548 240.7449 0078510 283.5910 213.9852 14.10300356443782
Epoch: 2025-05-08T17:16Z
Definitive object data (Epoch: 2025-05-08T17:16:16.908Z)
Latitude
43.00272°
Longitude
-65.98865°
Altitude
912.057 km
Speed
7.376 km/s
True Right ascension
03h 59m 28s
True Declination
42° 50' 05"
Sunlit
Object was in daylight at TLE epoch
Visualization TLE readout
Latitude
75.58664°
Longitude
-68.83971°
Altitude
928.078 km
Speed
7.365 km/s
Apparent Right ascension
04h 22m 43s
Apparent Declination
24° 01' 21"
Sunlit
Object is in daylight
Visualization observer readout
Local Sidereal Time
16:35:35
Azimuth
3.267° NNE
Elevation
-25.991°
Doppler factor
1
Orbital elements
Apogee altitude
912.098 km
Perigee altitude
798.519 km
Semi-major axis
7,233.446 km
Eccentricity
0.007851
Inclination
89.0548°
RAAN
240.7449°
Arg. of periapsis
283.591°
True anomaly
213.48638°
Mean anomaly
213.9852°
Eccentric anomaly
213.73538°
Mean motion
3.52797 °/min
BSTAR
0.0019192
Orbital period
102.04 mins
Loading maneuver chart data...
Loading SW <> Apogee altitude chart data...
Loading historical data...
Loading historical data...
Loading historical data...
Loading historical data...
Loading historical data...
Loading historical data...
Loading historical data...

TRANSIT 10 DEB Visibility forecast

Observer location: undefined°, undefined°

Span
Click to sort rows by Start time (UTC) header in descending order
Start Az.
Max El. time (UTC)
Max El. Az.
Max El.
End time (UTC)
End Az.
8 mins2025-05-09 18:45:25.229Z29.264° NE2025-05-09 18:49:25.229Z80.189° E25.317°2025-05-09 18:53:25.229Z133.667° SE
9 mins2025-05-09 20:27:25.229Z339.455° N2025-05-09 20:31:25.229Z284.414° WNW31.573°2025-05-09 20:36:25.229Z215.34° SW
9 mins2025-05-10 07:54:25.229Z183.14° SSW2025-05-10 07:58:25.229Z297.474° NW44.535°2025-05-10 08:03:25.229Z356.513° N
|